Weather History for KCIU - February, 2013

Change the Weather History Date:

Sunday, February 17, 2013

  Actual Average Record
Temperature  
Mean Temperature 11 °F -  
Max Temperature 26 °F 28 °F 48 °F (1981)
Min Temperature -4 °F 1 °F -43 °F (1979)
Degree Days  
Heating Degree Days 54    
Moisture  
Dew Point 2 °F    
Average Humidity 74    
Maximum Humidity 100    
Minimum Humidity 34    
Precipitation  
Precipitation 0.00 in - - ()
Sea Level Pressure  
Sea Level Pressure 30.11 in    
Wind  
Wind Speed 4 mph (East)    
Max Wind Speed 10 mph    
Max Gust Speed -    
Visibility 10 miles    
Events      
Averages and records for this station are not official NWS values.
T = Trace of Precipitation, MM = Missing Value Source: NWS Daily Summary

Daily Weather History Graph

Daily Weather History Graph

Search for Another Location

Airport or City:

Trip Planner

Search our weather history database for the weather conditions in past years. The results will help you decide how hot, cold, wet, or windy it might be!

Date:

Astronomy

Feb. 17, 2013 Rise Set
Actual Time 7:37 AM EST 6:07 PM EST
Civil Twilight 7:06 AM EST 6:37 PM EST
Nautical Twilight 6:31 AM EST 7:12 PM EST
Astronomical Twilight 5:56 AM EST 7:47 PM EST
Moon 11:02 AM EST (2/17) 1:28 AM EST (2/17)
Length of Visible Light 11h 31m
Length of Day
10h 29m
Waxing Crescent, 49% of the Moon is Illuminated
Feb 17
Waxing Crescent
Feb 17
First Quarter
Feb 25
Full
Mar 4
Last Quarter
Mar 11
New

Hourly Weather History & Observations

Time (EST) Temp. Windchill Dew Point Humidity Pressure Visibility Wind Dir Wind Speed Gust Speed Precip Events Conditions
12:15 AM 5.0 °F -4.1 °F 1.4 °F 85% 30.10 in 10.0 mi North 4.6 mph - N/A   Overcast
12:35 AM 5.0 °F -5.6 °F 1.4 °F 85% 30.10 in 10.0 mi NNE 5.8 mph - N/A   Overcast
12:55 AM 5.0 °F -4.1 °F 1.4 °F 85% 30.10 in 10.0 mi NE 4.6 mph - N/A   Overcast
1:15 AM 5.0 °F -4.1 °F 1.4 °F 85% 30.10 in 10.0 mi NNE 4.6 mph - N/A   Overcast
1:35 AM 5.0 °F -5.6 °F 1.4 °F 85% 30.10 in 10.0 mi ENE 5.8 mph - N/A   Overcast
1:55 AM 5.0 °F -4.1 °F 1.4 °F 85% 30.10 in 10.0 mi NE 4.6 mph - N/A   Overcast
2:15 AM 3.2 °F -7.8 °F -0.4 °F 85% 30.10 in 10.0 mi ENE 5.8 mph - N/A   Scattered Clouds
2:35 AM 1.4 °F -6.2 °F -2.2 °F 85% 30.10 in 10.0 mi East 3.5 mph - N/A   Clear
2:55 AM 1.4 °F -6.2 °F -0.4 °F 92% 30.10 in 10.0 mi NE 3.5 mph - N/A   Clear
3:15 AM -0.4 °F - -2.2 °F 92% 30.10 in 10.0 mi Calm Calm - N/A   Clear
3:35 AM -0.4 °F -8.3 °F -2.2 °F 92% 30.11 in 10.0 mi NE 3.5 mph - N/A   Clear
3:55 AM -0.4 °F -10.4 °F -2.2 °F 92% 30.11 in 10.0 mi NE 4.6 mph - N/A   Clear
4:15 AM -0.4 °F -12.0 °F -2.2 °F 92% 30.11 in 10.0 mi NNE 5.8 mph - N/A   Partly Cloudy
4:35 AM -0.4 °F -8.3 °F -2.2 °F 92% 30.12 in 10.0 mi North 3.5 mph - N/A   Mostly Cloudy
4:55 AM -0.4 °F -8.3 °F -2.2 °F 92% 30.11 in 10.0 mi NE 3.5 mph - N/A   Overcast
5:15 AM -0.4 °F - -2.2 °F 92% 30.12 in 10.0 mi Calm Calm - N/A   Overcast
5:35 AM -0.4 °F - -2.2 °F 92% 30.12 in 10.0 mi Calm Calm - N/A   Mostly Cloudy
5:55 AM -2.2 °F -10.4 °F -2.2 °F 100% 30.12 in 10.0 mi NE 3.5 mph - N/A   Mostly Cloudy
6:15 AM -2.2 °F -10.4 °F -4.0 °F 92% 30.12 in 10.0 mi NE 3.5 mph - N/A   Overcast
6:35 AM -2.2 °F -12.5 °F -5.8 °F 85% 30.12 in 10.0 mi ENE 4.6 mph - N/A   Partly Cloudy
6:55 AM -4.0 °F - -5.8 °F 92% 30.13 in 10.0 mi Calm Calm - N/A   Clear
7:15 AM -4.0 °F -12.4 °F -5.8 °F 92% 30.14 in 10.0 mi ENE 3.5 mph - N/A   Clear
7:35 AM -4.0 °F -12.4 °F -5.8 °F 92% 30.14 in 10.0 mi ENE 3.5 mph - N/A   Clear
7:55 AM -4.0 °F -14.6 °F -5.8 °F 92% 30.14 in 10.0 mi ENE 4.6 mph - N/A   Clear
8:15 AM -2.2 °F -10.4 °F -5.8 °F 85% 30.14 in 10.0 mi ENE 3.5 mph - N/A   Clear
8:35 AM -0.4 °F -10.4 °F -4.0 °F 85% 30.15 in 10.0 mi East 4.6 mph - N/A   Clear
8:55 AM -0.4 °F -10.4 °F -2.2 °F 92% 30.15 in 10.0 mi ESE 4.6 mph - N/A   Clear
9:15 AM 3.2 °F -9.1 °F -0.4 °F 85% 30.14 in 10.0 mi ESE 6.9 mph - N/A   Clear
9:35 AM 3.2 °F -11.3 °F 1.4 °F 92% 30.14 in 10.0 mi East 9.2 mph - N/A   Clear
9:55 AM 6.8 °F -0.1 °F 1.4 °F 79% 30.15 in 10.0 mi SE 3.5 mph - N/A   Clear
10:15 AM 8.6 °F - 1.4 °F 73% 30.15 in 10.0 mi Calm Calm - N/A   Clear
10:35 AM 15.8 °F - 8.6 °F 73% 30.15 in 10.0 mi Calm Calm - N/A   Clear
10:55 AM 17.6 °F - 3.2 °F 53% 30.15 in 10.0 mi Calm Calm - N/A   Clear
11:15 AM 21.2 °F - 5.0 °F 50% 30.15 in 10.0 mi Calm Calm - N/A   Clear
11:35 AM 24.8 °F - 1.4 °F 36% 30.15 in 10.0 mi Calm Calm - N/A   Clear
11:55 AM 26.6 °F - 1.4 °F 34% 30.15 in 10.0 mi Calm Calm - N/A   Clear
12:15 PM 26.6 °F - 3.2 °F 37% 30.14 in 10.0 mi Calm Calm - N/A   Clear
12:35 PM 24.8 °F - 1.4 °F 36% 30.14 in 10.0 mi Calm Calm - N/A   Clear
12:55 PM 19.4 °F - 3.2 °F 49% 30.13 in 10.0 mi Calm Calm - N/A   Clear
1:15 PM 19.4 °F 12.8 °F 3.2 °F 49% 30.12 in 10.0 mi East 4.6 mph - N/A   Clear
1:35 PM 21.2 °F 16.4 °F 3.2 °F 46% 30.12 in 10.0 mi East 3.5 mph - N/A   Clear
1:55 PM 21.2 °F 16.4 °F 3.2 °F 46% 30.12 in 10.0 mi East 3.5 mph - N/A   Clear
2:15 PM 21.2 °F - 3.2 °F 46% 30.11 in 10.0 mi Calm Calm - N/A   Clear
2:35 PM 24.8 °F 16.1 °F 3.2 °F 40% 30.10 in 10.0 mi West 8.1 mph - N/A   Clear
2:55 PM 21.2 °F 11.7 °F 3.2 °F 46% 30.10 in 10.0 mi West 8.1 mph - N/A   Partly Cloudy
3:15 PM 21.2 °F 12.6 °F 3.2 °F 46% 30.10 in 10.0 mi West 6.9 mph - N/A   Partly Cloudy
3:35 PM 21.2 °F 14.9 °F 3.2 °F 46% 30.10 in 10.0 mi WSW 4.6 mph - N/A   Clear
3:55 PM 19.4 °F 11.5 °F 5.0 °F 54% 30.09 in 10.0 mi South 5.8 mph - N/A   Clear
4:15 PM 19.4 °F 11.5 °F 3.2 °F 49% 30.09 in 10.0 mi South 5.8 mph - N/A   Clear
4:35 PM 17.6 °F 9.3 °F 5.0 °F 58% 30.09 in 10.0 mi South 5.8 mph - N/A   Mostly Cloudy
4:55 PM 17.6 °F 12.3 °F 5.0 °F 58% 30.09 in 10.0 mi SSE 3.5 mph - N/A   Overcast
5:15 PM 17.6 °F 12.3 °F 5.0 °F 58% 30.09 in 10.0 mi SSE 3.5 mph - N/A   Overcast
5:35 PM 17.6 °F 9.3 °F 6.8 °F 63% 30.08 in 10.0 mi SE 5.8 mph - N/A   Overcast
5:55 PM 15.8 °F 6.1 °F 3.2 °F 58% 30.09 in 10.0 mi SSE 6.9 mph - N/A   Mostly Cloudy
6:15 PM 15.8 °F 10.2 °F 5.0 °F 62% 30.09 in 10.0 mi South 3.5 mph - N/A   Clear
6:35 PM 14.0 °F - 3.2 °F 62% 30.09 in 10.0 mi Calm Calm - N/A   Clear
6:55 PM 12.2 °F - 5.0 °F 73% 30.09 in 10.0 mi Calm Calm - N/A   Clear
7:15 PM 12.2 °F 6.1 °F 6.8 °F 79% 30.08 in 10.0 mi SSW 3.5 mph - N/A   Mostly Cloudy
7:35 PM 12.2 °F 6.1 °F 5.0 °F 73% 30.08 in 10.0 mi South 3.5 mph - N/A   Overcast
7:55 PM 10.4 °F - 5.0 °F 79% 30.09 in 10.0 mi Calm Calm - N/A   Partly Cloudy
8:15 PM 8.6 °F 2.0 °F 3.2 °F 79% 30.08 in 10.0 mi SSE 3.5 mph - N/A   Clear
8:35 PM 8.6 °F 0.1 °F 3.2 °F 79% 30.08 in 10.0 mi SE 4.6 mph - N/A   Clear
8:55 PM 8.6 °F -1.3 °F 3.2 °F 79% 30.08 in 10.0 mi SE 5.8 mph - N/A   Clear
9:15 PM 8.6 °F - 3.2 °F 79% 30.08 in 10.0 mi Calm Calm - N/A   Clear
9:35 PM 8.6 °F 0.1 °F 5.0 °F 85% 30.08 in 10.0 mi SE 4.6 mph - N/A   Clear
9:55 PM 8.6 °F -2.6 °F 5.0 °F 85% 30.07 in 10.0 mi SE 6.9 mph - N/A   Mostly Cloudy
10:15 PM 8.6 °F -2.6 °F 6.8 °F 92% 30.07 in 10.0 mi SE 6.9 mph - N/A   Overcast
10:35 PM 8.6 °F -2.6 °F 6.8 °F 92% 30.07 in 10.0 mi SE 6.9 mph - N/A   Overcast
10:55 PM 10.4 °F -0.4 °F 6.8 °F 85% 30.07 in 10.0 mi SE 6.9 mph - N/A   Overcast
11:15 PM 10.4 °F -0.4 °F 6.8 °F 85% 30.07 in 10.0 mi SE 6.9 mph - N/A   Overcast
11:35 PM 10.4 °F -1.5 °F 6.8 °F 85% 30.06 in 10.0 mi SE 8.1 mph - N/A   Overcast
11:55 PM 10.4 °F -3.3 °F 6.8 °F 85% 30.05 in 10.0 mi SE 10.4 mph - N/A   Overcast